[[{"header":{"parameterUnit":"m.s-1","parameterCategory":1,"la1":30.2991,"la2":30.254,"lo1":-89.0895,"lo2":-89.0444,"dy":0.0017,"dx":0.0017,"nx":28,"ny":28,"refTime":"2024-03-02T09:00:00:Z","depth":0,"parameterNumber":2,"parameterNumberName":"U-component_of_WINDS"},"data":[0,0,0,0,0,0,0,0,0,0,0,0,0,0,0,0,0,0,0,0,0,0,0,0,0,0,0,0,0,0,0,0,0,0,0,0,0,0,0,0,0,0,0,0,0,0,0,0,0,0,0,0,0,0,0,0,0,0,0.2078,0.2078,0,0.2069,0.2069,0.2069,0.2082,0.2083,0.2083,0.2084,0.2073,0.2073,0.2072,0,0,0,0,0,0,0,0,0,0,0,0,0,0.2104,0.2103,0.2078,0.2078,0.2077,0.2069,0.2069,0.2069,0.2082,0.2083,0.2083,0.2084,0.2074,0.2073,0.2072,0,0,0,0,0,0,0,0,0,0,0,0,0,0.2094,0.2103,0.2078,0.2083,0.2083,0.2069,0.2069,0.2069,0.2082,0.2083,0.2083,0.2084,0.2074,0.2073,0.2072,0.2052,0,0,0.2069,0.2068,0,0,0,0,0,0,0,0,0.2094,0.2093,0.2082,0.2083,0.2083,0.2078,0.2075,0.2063,0.2082,0.2082,0.2084,0.2084,0.2074,0.2073,0.207,0.2051,0.2051,0.2069,0.2068,0.2068,0.2067,0,0,0,0,0,0,0,0.2095,0.2093,0.2074,0.2082,0.2083,0.2086,0.2085,0.2073,0.2074,0.2082,0.2083,0.2082,0.2074,0.2071,0.207,0.2051,0.2069,0.2068,0.2067,0.2067,0.2016,0.2016,0,0,0,0,0,0,0.2095,0.2094,0.2075,0.2074,0.2091,0.2085,0.2084,0.2079,0.2075,0.2075,0.2082,0.2083,0.2072,0.2071,0.207,0.2046,0.2068,0.2067,0.2066,0.2017,0.2016,0.2015,0,0,0,0,0,0,0.2096,0.2093,0.2075,0.2084,0.2082,0.2083,0.2077,0.2078,0.2075,0.2074,0.2074,0.2078,0.2073,0.2071,0.2057,0.2046,0.2066,0.2065,0.2018,0.2017,0.2016,0.1999,0,0,0,0,0,0,0.2096,0.2093,0.2086,0.2084,0.2081,0.2062,0.2077,0.2077,0.2073,0.2074,0.2071,0.2071,0.2073,0.2058,0.2055,0.2045,0.2064,0.2019,0.2017,0.2016,0.2001,0.1998,0.1995,0,0,0,0,0,0.2097,0.2081,0.2085,0.2083,0.2072,0.2061,0.206,0.2064,0.2072,0.2064,0.2064,0.2071,0.2048,0.2056,0.2054,0.2043,0.2019,0.2018,0.2016,0.2002,0.1998,0.1995,0,0,0,0,0,0,0.2081,0.2081,0.2086,0.2068,0.2065,0.2064,0.2054,0.206,0.2053,0.2055,0.206,0.2059,0.2043,0.2042,0.2051,0.2024,0.2035,0.2033,0.2025,0.2022,0.2019,0.202,0.2064,0,0,0,0,0,0.2075,0.2067,0.2067,0.2052,0.205,0.2052,0.2048,0.2051,0.2048,0.2046,0.2045,0.2041,0.2033,0.2027,0.202,0.2001,0.2001,0.1992,0.199,0.1987,0.1985,0.1976,0.1972,0.201,0.201,0.201,0,0,0.2063,0.2063,0.2057,0.2049,0.2046,0.2038,0.2051,0.2041,0.2034,0.2044,0.2031,0.203,0.2026,0.2009,0.2002,0.2007,0.1975,0.1985,0.1983,0.1983,0.1974,0.197,0.1967,0.2009,0.2009,0.2009,0,0,0.2037,0.2036,0.2023,0.2021,0.2018,0.202,0.2017,0.2015,0.2015,0.2002,0.201,0.2002,0.1988,0.1985,0.1981,0.1956,0.1961,0.1953,0.1938,0.1929,0.1926,0.1924,0.1915,0.1912,0.1951,0.1951,0.1951,0,0.2023,0.201,0.2016,0.2006,0.2002,0.2012,0.1999,0.1997,0.1991,0.1988,0.1995,0.1978,0.1976,0.1959,0.1953,0.195,0.1947,0.1953,0.1926,0.1924,0.1921,0.1913,0.191,0.195,0.195,0.195,0.195,0,0.1993,0.1984,0.1974,0.1969,0.1965,0.1953,0.1957,0.1952,0.1956,0.1957,0.1944,0.1942,0.1935,0.1931,0.1935,0.1915,0.1919,0.1926,0.1937,0.1917,0.1909,0.1906,0.1949,0.1949,0.1949,0.195,0,0,0.1955,0.1955,0.1951,0.1949,0.1947,0.194,0.193,0.1923,0.1919,0.1915,0.1906,0.1894,0.1901,0.1898,0.1901,0.1893,0.1874,0.1901,0.1901,0.1896,0.1852,0.1847,0.1843,0.1878,0.1877,0.1877,0.1853,0,0.1929,0.1911,0.1916,0.1898,0.189,0.19,0.1891,0.1889,0.189,0.1883,0.1885,0.1877,0.1886,0.1884,0.1877,0.1878,0.1865,0.1879,0.1869,0.1869,0.187,0.1839,0.1833,0.181,0.185,0.1849,0.1849,0,0.1896,0.1892,0.1873,0.1874,0.1871,0.1862,0.1857,0.1851,0.1849,0.185,0.1847,0.1852,0.1842,0.1854,0.184,0.185,0.1846,0.1846,0.1845,0.1844,0.1857,0.1837,0.1803,0.1799,0.1844,0.1844,0.1845,0,0.1871,0.186,0.1848,0.1846,0.1846,0.184,0.184,0.1839,0.1835,0.1831,0.1828,0.1823,0.1819,0.1815,0.1819,0.1827,0.1804,0.1816,0.1805,0.1805,0.1799,0.1799,0.1764,0.1797,0.1797,0.1797,0.1797,0,0.1841,0.1829,0.1837,0.1829,0.1816,0.1823,0.181,0.1811,0.181,0.1802,0.1811,0.1804,0.1809,0.1803,0.1806,0.1794,0.1793,0.1793,0.1794,0.1792,0.1792,0.179,0.1791,0.1797,0.1797,0.1797,0.1797,0,0.181,0.1814,0.1802,0.1803,0.1803,0.1794,0.1795,0.1788,0.1791,0.1781,0.178,0.1783,0.1776,0.178,0.1772,0.1775,0.1759,0.1762,0.176,0.1761,0.1749,0.175,0.1711,0.1706,0.1742,0.1742,0.1742,0,0.179,0.1782,0.1783,0.1779,0.1778,0.1772,0.1768,0.1775,0.1771,0.1769,0.1762,0.1756,0.1751,0.1739,0.1741,0.1736,0.1739,0.1725,0.1738,0.1737,0.1738,0.1739,0.1738,0.1722,0.1722,0.1722,0.1721,0,0.1755,0.1759,0.1754,0.175,0.1746,0.1743,0.174,0.1737,0.1743,0.1739,0.1732,0.1728,0.1722,0.1715,0.1711,0.171,0.1717,0.1718,0.1715,0.1713,0.1712,0.1712,0.1753,0.1718,0.1719,0.1719,0.1719,0.1719,0.173,0.1723,0.1723,0.1717,0.1717,0.1715,0.1708,0.1711,0.1705,0.1701,0.1705,0.1697,0.1696,0.1691,0.169,0.1684,0.1689,0.1685,0.1684,0.1682,0.1681,0.1713,0.1683,0.1683,0.1683,0.1683,0.1683,0,0.1695,0.1696,0.1691,0.1688,0.1684,0.1692,0.169,0.1686,0.1679,0.1678,0.1674,0.1667,0.1661,0.1663,0.1658,0.1653,0.1656,0.1651,0.1652,0.1651,0.1676,0.1679,0.1649,0.1649,0.1649,0.1649,0.1649,0.1649,0.1677,0.1666,0.1669,0.1658,0.1659,0.1652,0.165,0.1649,0.1648,0.164,0.1636,0.1637,0.1638,0.1633,0.1628,0.1629,0.1627,0.1621,0.1623,0.1646,0.165,0.1653,0.1656,0.1621,0.1621,0.1599,0.1598,0.1598]},{"header":{"parameterUnit":"m.s-1","parameterCategory":1,"la1":30.2991,"la2":30.254,"lo1":-89.0895,"lo2":-89.0444,"dy":0.0017,"dx":0.0017,"nx":28,"ny":28,"refTime":"2024-03-02T09:00:00:Z","depth":0,"parameterNumber":3,"parameterNumberName":"V-component_of_WINDS"},"data":[0,0,0,0,0,0,0,0,0,0,0,0,0,0,0,0,0,0,0,0,0,0,0,0,0,0,0,0,0,0,0,0,0,0,0,0,0,0,0,0,0,0,0,0,0,0,0,0,0,0,0,0,0,0,0,0,0,0,-2.0039,-2.0039,0,-2.0026,-2.0026,-2.0026,-1.9995,-1.9995,-1.9994,-1.9993,-1.998,-1.9981,-1.9981,0,0,0,0,0,0,0,0,0,0,0,0,0,-2.0037,-2.0037,-2.0039,-2.0039,-2.0039,-2.0026,-2.0026,-2.0026,-1.9995,-1.9995,-1.9994,-1.9993,-1.998,-1.9981,-1.9981,0,0,0,0,0,0,0,0,0,0,0,0,0,-2.0033,-2.0037,-2.0039,-2.0022,-2.002,-2.0026,-2.0026,-2.0026,-1.9995,-1.9995,-1.9994,-1.9993,-1.998,-1.9981,-1.9981,-2.0003,0,0,-1.9982,-1.9982,0,0,0,0,0,0,0,0,-2.0033,-2.0033,-2.0025,-2.0023,-2.0021,-2.0011,-2.0021,-2.0018,-1.9996,-2.0005,-1.9993,-1.9992,-1.9991,-1.9991,-1.9991,-2.0002,-2.0001,-1.9982,-1.9982,-1.9982,-1.9983,0,0,0,0,0,0,0,-2.0033,-2.0033,-2.0034,-2.0024,-2.0022,-2.0015,-2.0013,-2.002,-2.0004,-2.0004,-2.0002,-2.0001,-1.999,-1.999,-1.999,-2.0001,-1.9982,-1.9982,-1.9983,-1.9983,-2.003,-2.0031,0,0,0,0,0,0,-2.0036,-2.0034,-2.0034,-2.0034,-2.0025,-2.0016,-2.0014,-2.0015,-2.0004,-2.0001,-2.0002,-1.9999,-1.999,-1.999,-1.9989,-2.0014,-1.9982,-1.9983,-1.9983,-2.0029,-2.003,-2.0032,0,0,0,0,0,0,-2.0036,-2.0036,-2.0035,-2.0033,-2.0032,-2.0017,-2.0019,-2.0016,-2.0016,-2.0002,-1.9999,-2.0004,-1.9989,-1.9989,-2.0,-2.0013,-1.9983,-1.9983,-2.0028,-2.003,-2.0031,-2.0063,0,0,0,0,0,0,-2.0036,-2.0037,-2.0044,-2.0033,-2.0032,-2.0045,-2.002,-2.0016,-2.0016,-2.0013,-2.0004,-2.0001,-1.9989,-1.9999,-2.0,-2.0013,-1.9984,-2.0027,-2.0029,-2.0031,-2.0061,-2.0066,-2.007,0,0,0,0,0,-2.0036,-2.0054,-2.0045,-2.0045,-2.0042,-2.0046,-2.0045,-2.0031,-2.0018,-2.0025,-2.0017,-2.0001,-2.0012,-2.0001,-2.0001,-2.0015,-2.0026,-2.0028,-2.003,-2.0059,-2.0065,-2.007,0,0,0,0,0,0,-2.0067,-2.0052,-2.0042,-2.0057,-2.0053,-2.0041,-2.005,-2.0037,-2.0037,-2.0034,-2.0016,-2.0014,-2.0027,-2.0022,-2.001,-2.0035,-2.0016,-2.0019,-2.0038,-2.0043,-2.0048,-2.0048,-1.9984,0,0,0,0,0,-2.0075,-2.0079,-2.0067,-2.0081,-2.0079,-2.0065,-2.0066,-2.0056,-2.0051,-2.0049,-2.0041,-2.0037,-2.0039,-2.0041,-2.0043,-2.0061,-2.0058,-2.007,-2.0075,-2.0078,-2.008,-2.009,-2.0095,-2.0039,-2.0039,-2.0039,0,0,-2.0092,-2.0085,-2.0089,-2.0087,-2.0082,-2.0087,-2.0064,-2.007,-2.0074,-2.005,-2.0059,-2.0054,-2.0048,-2.0062,-2.0068,-2.0059,-2.0095,-2.0081,-2.0084,-2.0084,-2.0092,-2.0098,-2.0102,-2.0041,-2.0041,-2.004,0,0,-2.0126,-2.0121,-2.0133,-2.0129,-2.0123,-2.0114,-2.0117,-2.0107,-2.0102,-2.0111,-2.0094,-2.0098,-2.0102,-2.0099,-2.0098,-2.0133,-2.0118,-2.0134,-2.0156,-2.0166,-2.017,-2.0174,-2.0186,-2.019,-2.0136,-2.0136,-2.0136,0,-2.0148,-2.0155,-2.014,-2.0147,-2.0147,-2.0126,-2.0138,-2.0135,-2.013,-2.013,-2.012,-2.0125,-2.012,-2.0133,-2.0142,-2.0142,-2.0145,-2.0134,-2.0171,-2.0174,-2.0178,-2.0189,-2.0193,-2.0138,-2.0138,-2.0138,-2.0137,0,-2.0183,-2.0188,-2.0198,-2.0193,-2.0194,-2.0204,-2.019,-2.0193,-2.0183,-2.0175,-2.0185,-2.0178,-2.0178,-2.0181,-2.017,-2.0193,-2.0187,-2.0174,-2.0154,-2.0185,-2.0195,-2.0199,-2.0141,-2.014,-2.0139,-2.0139,0,0,-2.0234,-2.0222,-2.0226,-2.0224,-2.0216,-2.022,-2.0229,-2.0229,-2.0232,-2.0229,-2.0236,-2.0241,-2.0229,-2.0228,-2.0218,-2.0226,-2.0253,-2.0212,-2.0211,-2.0219,-2.0277,-2.0286,-2.0292,-2.0244,-2.0245,-2.0246,-2.0278,0,-2.0265,-2.0279,-2.0266,-2.0283,-2.0288,-2.0269,-2.0277,-2.0273,-2.0266,-2.0269,-2.0262,-2.0265,-2.025,-2.0249,-2.0256,-2.0248,-2.0264,-2.0246,-2.025,-2.0251,-2.0251,-2.0297,-2.0306,-2.0337,-2.0281,-2.0282,-2.0283,0,-2.0303,-2.0303,-2.032,-2.0312,-2.0313,-2.0321,-2.032,-2.0323,-2.0319,-2.0314,-2.0313,-2.0301,-2.0309,-2.0291,-2.0302,-2.029,-2.0291,-2.0288,-2.0289,-2.0288,-2.0268,-2.0296,-2.0346,-2.035,-2.0289,-2.0288,-2.0288,0,-2.0338,-2.0342,-2.0353,-2.0352,-2.0343,-2.0348,-2.0345,-2.034,-2.0341,-2.0341,-2.0341,-2.0342,-2.0342,-2.0343,-2.0331,-2.0319,-2.0344,-2.0325,-2.034,-2.034,-2.0344,-2.0344,-2.0394,-2.0347,-2.0347,-2.0347,-2.0347,0,-2.0373,-2.0384,-2.0368,-2.0375,-2.0387,-2.0373,-2.0385,-2.038,-2.0376,-2.0381,-2.0365,-2.0371,-2.0355,-2.0359,-2.035,-2.0361,-2.0361,-2.0357,-2.0354,-2.0357,-2.0358,-2.0357,-2.0354,-2.0348,-2.0348,-2.0348,-2.0348,0,-2.0413,-2.0403,-2.0413,-2.0405,-2.0403,-2.0412,-2.0405,-2.041,-2.0403,-2.041,-2.0411,-2.04,-2.0404,-2.0392,-2.0394,-2.0388,-2.0404,-2.0398,-2.0405,-2.0403,-2.0418,-2.0416,-2.0468,-2.0474,-2.0424,-2.0425,-2.0425,0,-2.0436,-2.0444,-2.0437,-2.0439,-2.0437,-2.0441,-2.0442,-2.0429,-2.0431,-2.0428,-2.0434,-2.0437,-2.0438,-2.0445,-2.0437,-2.0439,-2.0432,-2.0451,-2.0432,-2.0436,-2.0432,-2.0431,-2.0432,-2.0454,-2.0455,-2.0455,-2.0456,0,-2.0478,-2.0472,-2.0475,-2.0476,-2.0478,-2.0478,-2.0477,-2.048,-2.0466,-2.0469,-2.0473,-2.0474,-2.0476,-2.0479,-2.0479,-2.0476,-2.0463,-2.0462,-2.0465,-2.0468,-2.0471,-2.0469,-2.0414,-2.046,-2.046,-2.0459,-2.0459,-2.0459,-2.0509,-2.0516,-2.0512,-2.0515,-2.0513,-2.0513,-2.0518,-2.0511,-2.0514,-2.0515,-2.0508,-2.0513,-2.051,-2.0509,-2.0507,-2.0511,-2.0503,-2.0508,-2.0509,-2.051,-2.0512,-2.0472,-2.0511,-2.0511,-2.0511,-2.0511,-2.0511,0,-2.0549,-2.0546,-2.0549,-2.0548,-2.0551,-2.054,-2.0539,-2.0542,-2.0547,-2.0545,-2.0547,-2.0552,-2.0555,-2.0547,-2.0549,-2.0554,-2.0548,-2.0555,-2.0554,-2.0553,-2.052,-2.0516,-2.0559,-2.0559,-2.0559,-2.0559,-2.0559,-2.0559,-2.057,-2.058,-2.0575,-2.0585,-2.0581,-2.0587,-2.0587,-2.0586,-2.0585,-2.0591,-2.0593,-2.0589,-2.0585,-2.0586,-2.0589,-2.0587,-2.0588,-2.0596,-2.0592,-2.056,-2.0556,-2.0551,-2.0548,-2.0597,-2.0597,-2.0625,-2.0625,-2.0625]}]]